Theta_e
324 324 324 323 323 324 325 325 327 327 327 326 326 324 323 322 321 320 320 318 314 314 315 314 312 311 309 310 309 308 306 306 305 303 304 301 301 302 314 315 314 314 315 316 317 319 319 320 321 323 323 322 322 325 327 329 330 332 333 333 330 329 330 329 329 327 327 327 325 324 323 323 323 322 321 321 322 323 323 323 322 321 322 322 322
321 321 321 320 321 321 322 322 323 325 326 324 324 323 322 321 320 320 319 317 316 315 316 315 315 311 310 310 309 308 306 306 306 305 304 305 302 301 309 313 315 314 315 317 318 318 318 319 319 319 321 323 324 324 325 325 327 327 330 332 332 332 332 332 332 331 330 327 327 326 325 323 322 322 322 321 321 321 321 322 322 321 320 320 321
319 318 318 318 318 319 320 320 320 321 322 322 322 321 321 319 318 318 317 316 315 313 313 314 316 315 311 310 310 310 309 307 308 307 306 305 307 306 305 310 313 315 315 316 316 317 318 318 319 319 319 319 319 320 322 323 324 324 325 326 329 330 330 330 330 330 331 331 329 328 326 324 323 323 322 321 321 320 320 321 321 321 321 320 319
318 317 316 315 316 316 317 318 319 319 319 318 318 318 318 318 317 317 316 315 314 313 312 314 315 315 314 314 313 312 311 309 308 307 306 308 308 307 306 306 309 314 314 314 316 317 316 316 317 319 319 319 319 320 319 320 321 322 323 324 325 326 326 327 327 329 330 331 331 330 328 326 324 323 323 322 321 321 320 320 320 320 320 321 321
315 315 313 312 311 311 311 312 314 316 317 315 314 314 312 312 313 314 314 313 312 311 313 314 313 314 314 314 312 312 311 311 311 308 308 309 308 305 305 303 302 306 308 311 315 314 314 315 316 317 318 318 319 321 321 320 320 320 321 322 323 325 325 325 324 325 328 330 330 330 328 327 325 324 323 323 323 322 321 321 320 320 321 321 321
310 309 309 308 308 307 308 308 309 309 310 312 311 309 307 306 307 309 306 306 305 305 305 304 306 308 309 310 309 309 309 311 311 310 311 309 306 304 302 301 300 300 301 306 310 311 312 314 314 314 315 316 318 320 321 321 320 319 319 319 320 321 322 322 323 323 324 327 328 328 328 328 328 326 325 324 323 323 322 321 321 321 320 320 320
308 307 306 306 305 305 305 305 306 306 306 306 307 307 304 303 303 303 302 301 301 300 301 301 302 303 305 306 307 308 308 311 312 311 308 306 304 303 301 300 299 300 300 299 302 305 311 313 312 313 313 315 317 318 319 320 320 320 321 321 320 320 319 320 320 321 321 322 323 324 325 326 327 327 327 325 324 323 322 321 321 321 320 319 319
305 304 303 302 302 301 301 302 302 301 301 301 303 304 304 300 299 299 298 297 298 297 298 298 299 301 302 304 305 305 306 309 308 306 305 304 303 302 301 300 299 299 300 298 299 301 306 309 309 311 311 312 315 316 317 319 319 319 320 321 320 320 320 320 319 319 319 319 320 321 321 322 323 325 327 326 324 324 323 322 322 321 321 320 320
302 301 300 299 299 299 299 300 300 299 299 299 299 299 302 301 298 298 297 295 295 295 295 296 298 299 301 302 302 304 305 305 303 303 305 303 302 301 300 300 299 301 299 298 299 299 301 305 306 307 307 310 312 313 315 316 316 318 319 319 320 320 319 319 319 319 319 318 318 318 319 320 322 322 324 326 325 324 323 323 323 322 321 320 320
298 298 297 297 296 295 296 296 296 296 296 296 296 297 298 300 297 297 296 294 293 292 293 294 297 298 299 298 302 301 299 299 300 301 300 299 299 298 298 297 298 298 298 298 298 297 295 297 301 302 303 305 308 310 312 313 313 316 318 319 319 318 318 318 318 318 317 318 318 318 318 318 318 320 321 323 324 325 324 324 323 323 323 321 321
295 295 294 293 292 292 292 292 293 293 292 292 292 293 295 297 297 295 295 293 292 291 291 293 295 296 297 298 300 296 296 297 298 299 298 298 298 298 297 295 295 296 297 297 296 294 292 291 291 293 295 302 306 308 310 310 310 313 316 316 317 317 317 317 317 317 317 317 317 318 318 319 319 319 319 319 320 322 325 324 324 324 323 321 321
292 293 292 292 291 291 290 291 291 291 290 290 290 290 290 292 294 294 291 291 291 290 290 292 292 296 299 299 296 294 294 295 296 296 296 297 297 297 295 293 293 294 295 295 295 293 291 289 290 290 292 296 301 303 306 308 308 310 312 314 315 316 316 315 315 316 315 316 316 317 318 318 319 319 319 319 319 320 321 322 324 325 324 325 324
292 291 291 291 290 290 290 289 290 290 289 289 289 289 289 289 290 292 290 288 288 289 289 290 291 293 294 296 297 295 294 294 294 294 294 294 296 296 293 292 291 291 293 293 294 292 290 289 288 288 289 291 293 299 302 304 304 309 310 311 313 314 314 315 315 314 314 314 314 314 315 315 316 317 318 319 319 320 320 321 322 323 324 325 324
291 291 290 290 289 289 289 289 289 288 289 289 289 290 288 288 288 288 288 287 286 287 288 288 286 287 288 290 292 293 292 292 293 293 293 291 292 294 291 290 289 289 291 291 290 291 289 288 288 288 288 289 290 292 294 296 298 305 309 309 310 311 311 312 310 309 309 310 311 312 312 314 315 315 315 316 318 319 320 321 322 322 322 323 324
290 290 290 289 288 288 288 288 288 288 287 287 287 287 287 287 287 286 286 286 286 288 287 287 284 286 287 287 286 288 290 289 289 292 290 290 288 290 290 288 287 287 289 290 288 289 289 288 288 288 288 288 289 290 292 295 296 301 305 307 307 309 309 308 308 308 308 307 307 308 308 309 311 312 313 314 315 316 318 319 320 321 322 322 322
288 288 288 288 288 287 287 287 287 287 287 286 286 286 286 286 286 287 286 284 284 285 287 286 286 285 282 285 286 282 280 283 285 287 288 289 286 286 289 286 286 286 287 289 286 287 288 288 288 288 288 288 288 289 291 292 296 298 298 300 304 307 308 308 308 307 307 307 307 307 307 307 308 309 310 313 314 315 315 316 317 318 320 321 322
287 287 287 287 287 287 287 287 287 286 286 286 285 285 285 285 286 285 285 283 283 283 284 285 285 286 284 281 280 280 280 281 282 283 285 286 284 285 287 285 285 285 285 286 285 286 288 288 287 287 287 287 287 288 289 290 292 294 296 296 300 304 305 308 308 307 307 307 307 307 307 307 308 308 308 309 311 313 314 315 315 315 316 318 320
287 287 286 286 286 286 286 286 285 286 286 285 285 285 284 284 284 284 284 284 283 282 281 284 284 285 284 284 284 279 278 279 279 277 281 282 282 284 283 283 283 284 284 284 284 284 287 286 286 286 286 287 287 287 288 289 291 291 294 297 299 299 301 304 307 307 307 307 308 308 308 307 306 308 309 308 308 309 309 313 313 314 315 316 316
286 286 286 286 285 285 285 285 285 285 285 285 284 284 284 284 284 284 284 285 283 281 281 281 281 283 283 283 283 282 282 280 277 278 275 276 280 281 282 282 282 283 283 283 283 284 284 284 284 284 285 287 287 287 287 288 292 294 298 299 300 299 299 301 302 303 305 306 306 306 307 307 307 308 309 309 309 308 308 308 310 312 313 314 315
286 285 285 285 285 284 284 284 284 284 285 284 283 283 284 284 284 283 283 283 282 281 280 280 279 280 282 282 281 281 280 280 280 278 278 276 277 280 281 281 282 282 282 282 282 283 283 283 284 284 285 286 287 287 287 287 288 288 290 299 300 300 300 300 299 299 300 303 305 305 306 307 307 308 308 308 309 310 309 308 308 309 312 313 314
285 285 284 285 285 284 283 283 283 283 284 283 283 283 283 282 282 282 282 282 282 282 281 280 280 279 279 279 279 279 278 279 279 280 277 275 276 276 278 280 280 280 281 281 281 283 283 283 283 284 285 286 287 287 287 288 288 288 293 296 299 302 302 301 299 299 299 299 301 302 305 306 307 308 308 308 308 309 311 309 308 308 309 310 312
284 284 284 284 283 283 283 283 282 283 283 282 282 282 282 282 281 281 281 281 281 282 281 280 280 280 280 279 279 279 277 277 276 277 276 277 276 276 277 276 276 278 281 280 281 282 282 282 282 283 283 285 286 287 287 288 289 289 291 294 296 297 298 298 298 298 297 298 298 299 301 303 305 307 307 307 308 308 310 310 310 309 309 309 309
283 283 283 283 283 283 282 282 282 282 282 281 281 281 281 281 281 280 280 280 280 280 281 281 280 280 279 279 278 279 278 277 276 277 276 275 275 275 276 277 277 276 277 280 282 281 281 281 281 281 282 284 285 286 287 287 288 289 291 291 293 294 295 296 296 296 297 297 297 298 299 300 301 303 305 306 307 308 309 309 310 310 310 309 308
282 282 281 281 281 281 281 281 281 281 281 281 281 281 281 281 281 280 279 279 280 281 279 279 279 279 278 279 279 279 279 278 278 278 277 276 276 275 275 276 276 276 279 279 280 279 281 281 280 281 282 282 283 285 285 284 284 289 288 289 291 292 294 295 296 295 295 296 296 297 298 299 299 300 302 303 305 307 309 309 309 309 310 310 310
281 281 280 280 281 281 281 280 280 281 280 280 280 280 280 280 280 279 278 278 278 279 278 278 278 277 278 278 278 278 278 278 279 278 278 277 277 274 275 276 274 276 277 278 277 279 280 279 280 280 281 281 283 282 282 283 283 287 289 288 289 290 291 292 293 294 294 295 296 297 298 298 298 299 300 301 303 306 307 308 308 308 309 309 310
281 281 281 281 281 281 281 281 280 280 280 280 279 279 279 279 279 278 278 277 278 277 277 277 277 277 277 277 277 277 277 278 277 278 277 277 275 275 274 275 275 275 276 275 276 276 275 278 280 280 280 280 281 281 282 282 283 287 287 286 285 288 289 290 292 293 294 294 295 295 294 294 296 297 297 300 301 303 304 306 307 307 308 308 309
281 281 281 281 281 281 280 280 280 279 279 279 280 279 278 279 279 278 279 278 277 278 277 277 279 277 276 276 278 277 278 277 277 278 278 277 277 276 275 273 273 275 274 276 275 275 276 277 278 280 279 280 280 281 281 282 284 286 286 283 282 285 286 289 291 292 293 293 293 293 293 293 294 296 297 297 300 301 302 304 305 306 306 306 305
281 281 280 280 280 280 280 279 279 279 279 278 278 278 277 278 277 277 277 279 277 276 276 276 277 276 276 276 277 276 277 277 277 277 277 278 277 276 276 274 273 271 274 273 274 274 276 275 277 278 278 279 280 280 283 282 281 285 284 281 280 281 284 287 290 291 291 290 291 292 293 293 294 294 295 295 296 297 298 299 300 300 300 300 300
281 280 280 279 279 279 279 279 278 278 277 277 277 276 276 277 277 276 276 276 277 276 276 276 276 276 276 276 276 277 276 276 276 277 277 277 277 276 276 275 275 272 271 271 273 273 275 276 275 276 278 278 279 280 279 279 281 282 280 279 279 279 282 286 288 289 289 290 291 291 291 291 292 293 293 294 295 295 296 297 297 298 299 299 300
282 281 279 279 278 279 278 277 277 277 277 276 276 276 276 276 276 276 275 275 275 275 276 275 275 276 276 275 275 276 276 275 276 275 276 275 275 276 276 275 275 273 272 272 272 274 274 276 276 275 277 277 278 278 278 278 281 280 278 278 278 278 283 285 285 286 288 290 290 290 291 291 292 292 293 293 294 296 297 297 297 297 298 299 300
280 279 278 277 277 277 277 276 276 276 276 276 275 275 275 275 276 275 275 275 274 274 274 275 276 276 274 274 274 275 275 275 275 275 275 275 275 275 274 275 275 274 273 272 270 273 275 273 274 276 276 276 277 277 277 277 279 279 277 277 277 280 282 281 282 284 286 287 287 288 290 291 291 292 292 292 293 294 295 295 295 296 297 298 299
278 277 277 277 276 276 276 276 276 275 275 275 275 274 275 274 274 275 274 274 273 273 274 274 276 275 274 273 274 274 274 274 274 274 274 274 274 275 274 275 273 273 273 272 270 270 274 274 274 274 275 275 276 275 275 276 277 279 276 276 277 280 278 277 280 282 283 285 287 288 288 289 289 290 290 291 291 292 293 293 294 295 295 296 297
277 277 277 276 276 276 276 276 275 275 274 274 274 274 274 273 273 274 273 273 273 273 273 273 274 274 273 273 273 273 274 273 273 274 274 273 273 274 274 274 273 273 272 271 270 270 273 275 275 274 274 275 274 274 273 274 274 275 277 276 276 276 276 276 276 279 281 283 284 285 287 288 289 289 288 288 289 290 290 291 291 292 292 294 294
277 277 276 276 276 276 275 275 274 274 273 274 273 273 273 273 272 274 273 272 272 272 272 272 273 275 273 273 273 272 274 272 272 272 273 272 272 272 272 273 271 272 273 272 271 270 270 273 273 274 273 274 272 274 273 273 273 275 274 275 275 275 275 275 275 276 280 282 283 285 286 287 287 288 288 287 288 289 290 290 290 290 291 292 292
276 276 276 276 275 275 275 274 274 273 273 272 272 272 272 271 271 271 272 272 272 272 272 272 272 272 272 272 272 272 273 272 272 272 272 272 272 271 271 272 271 271 272 272 271 269 269 270 272 271 272 272 272 272 273 273 274 274 273 274 274 275 275 275 275 276 279 282 284 285 285 285 286 286 286 287 287 287 288 288 288 288 289 289 290
276 275 275 275 275 274 274 273 273 272 272 272 272 272 272 271 271 272 271 272 272 272 272 272 272 272 272 272 272 272 271 271 271 271 271 271 271 270 270 271 271 271 271 272 271 270 270 268 270 270 271 271 271 272 273 273 273 273 273 273 274 274 274 275 275 275 278 282 283 283 284 284 284 285 285 286 286 286 287 287 287 288 288 288 288
275 275 274 274 274 274 274 273 272 272 272 271 272 271 271 271 271 271 271 272 272 272 272 272 275 272 272 272 272 271 271 270 271 271 271 270 271 270 270 270 271 271 272 271 271 271 270 268 269 271 271 271 272 272 272 271 272 272 273 273 273 273 274 274 275 276 279 280 281 281 281 282 283 284 285 285 286 286 286 287 287 287 286 287 286
274 274 274 274 274 273 272 272 271 271 270 270 270 270 270 270 271 272 272 272 272 272 272 272 272 272 272 271 272 271 271 270 270 271 270 270 270 270 270 270 271 271 270 271 272 271 271 270 270 269 270 270 270 271 272 272 271 271 272 273 273 273 273 273 274 275 276 276 276 276 279 280 281 283 284 284 285 286 286 286 285 286 285 284 285
274 273 273 273 272 272 271 271 271 271 270 270 270 269 270 271 271 272 271 271 272 272 272 272 272 272 272 271 271 272 271 271 271 270 270 271 271 270 271 271 271 271 271 272 272 271 271 270 270 270 270 271 271 270 272 273 273 272 271 271 271 273 273 273 273 274 275 276 278 280 280 280 281 281 282 284 284 284 285 284 284 284 283 283 284
273 273 272 272 271 271 270 270 270 269 269 269 269 270 270 270 270 270 271 271 271 271 271 272 272 272 272 272 271 271 271 271 271 271 271 271 271 271 271 271 272 272 272 272 271 271 271 270 270 269 270 270 271 272 273 273 272 272 273 272 270 271 272 273 273 273 275 275 275 276 278 279 279 280 282 282 282 283 283 282 282 282 282 283 284
273 272 271 271 271 270 270 270 269 270 270 270 270 270 270 270 270 271 271 270 270 270 270 270 270 270 270 271 272 271 273 276 276 276 275 275 272 268 270 272 272 272 272 272 271 271 271 270 270 271 270 270 271 271 271 271 271 271 272 273 272 273 273 273 274 275 275 275 275 276 276 277 277 277 277 276 276 279 278 280 280 280 281 283 284
273 271 270 270 270 270 270 269 269 270 270 270 273 276 275 271 271 272 273 272 271 270 269 269 269 270 270 270 271 275 275 275 275 275 275 276 276 275 272 273 272 272 271 271 270 270 270 269 269 270 269 270 271 271 271 272 273 274 273 273 272 273 273 273 274 275 276 275 275 274 276 278 277 276 275 275 276 277 276 276 276 279 281 284 284
271 270 270 270 269 269 269 269 269 269 270 270 275 277 278 277 274 273 272 271 272 272 271 270 269 269 269 270 269 272 273 273 272 274 275 275 275 275 276 276 276 273 271 270 271 271 270 270 271 271 270 270 271 272 272 273 273 273 273 273 273 273 272 270 270 274 277 276 275 275 275 277 276 274 274 274 275 275 276 275 280 282 282 284 284
269 268 268 269 269 269 269 268 268 269 269 274 277 278 278 278 277 274 273 273 272 272 272 271 270 269 269 269 269 270 270 270 271 271 272 273 274 275 275 276 276 276 277 275 273 272 272 271 271 272 271 271 272 273 273 273 273 273 274 273 273 272 272 271 272 271 275 277 275 274 273 275 274 273 273 274 275 275 276 279 282 282 283 284 284
268 268 269 269 268 268 268 268 268 268 268 275 277 278 278 278 278 277 274 273 272 272 272 272 272 271 269 269 268 269 269 272 271 270 268 269 272 274 275 276 276 277 278 279 279 276 275 273 272 271 272 272 272 273 274 274 275 273 273 273 273 273 273 272 273 273 275 277 275 272 270 273 273 273 272 274 275 275 276 279 281 282 283 283 283
269 268 267 267 267 267 268 267 267 267 267 273 277 278 278 278 278 277 274 273 272 272 272 272 272 271 269 268 267 268 268 268 269 269 269 269 269 270 271 272 273 274 277 278 278 277 277 274 273 272 274 275 273 274 275 276 274 273 273 272 273 272 272 271 273 273 275 276 273 272 270 272 273 273 272 274 275 275 275 278 281 282 282 283 283
269 268 268 267 267 267 266 266 266 266 267 274 276 278 278 278 278 277 274 273 272 272 272 272 271 269 268 269 268 268 268 268 269 270 269 271 272 272 273 273 274 275 275 274 275 275 275 275 275 274 274 275 275 275 276 276 275 275 274 272 272 272 272 273 273 273 274 275 274 272 268 271 274 273 273 274 275 275 275 277 280 281 281 282 282
266 266 265 265 266 266 266 265 265 266 266 274 276 277 278 278 278 275 274 272 271 271 270 270 269 269 269 269 268 268 268 268 271 275 275 275 274 274 274 274 273 273 274 276 278 278 276 275 274 274 275 276 278 276 276 275 274 273 273 273 273 272 271 269 269 271 272 275 274 272 270 270 274 272 272 274 274 273 274 274 278 280 280 281 281
268 267 266 266 266 266 265 264 265 265 264 270 275 277 278 278 277 273 272 270 269 268 268 269 270 269 269 269 269 268 268 268 272 275 277 277 275 274 273 272 272 273 273 274 276 277 277 277 278 278 278 278 277 277 277 277 274 274 271 269 268 269 268 267 268 269 270 273 273 273 271 270 272 272 271 272 273 273 273 273 274 277 279 280 280
267 267 266 265 265 265 265 264 265 264 264 267 273 276 277 278 276 271 271 269 268 268 268 269 269 269 269 272 272 271 270 270 274 276 277 277 275 273 273 273 272 272 272 272 272 272 276 276 275 274 273 273 274 273 273 274 275 273 268 266 268 268 267 268 266 268 269 271 272 274 270 270 271 272 271 272 272 272 273 273 273 274 277 277 278
268 266 265 265 263 263 263 264 266 265 263 265 272 275 277 277 276 272 270 268 268 268 268 268 269 269 269 271 273 273 273 274 276 278 278 277 274 274 273 273 271 270 270 270 270 271 269 267 266 266 266 268 267 267 268 272 273 271 269 269 269 268 267 267 267 267 266 268 271 273 268 269 270 271 270 268 267 270 272 272 273 272 272 273 273
Wind_Speed
7 6 5 7 7 7 7 6 6 6 5 6 5 5 4 4 5 3 3 5 3 3 3 4 5 5 4 4 4 4 4 4 4 4 4 4 3 3 4 5 7 9 11 13 15 16 17 17 17 17 16 14 13 11 10 10 11 10 12 14 9 8 11 7 8 8 9 8 7 6 5 4 4 4 4 5 4 5 6 7 6 4 6 8 8
7 7 8 8 7 7 7 7 7 6 6 7 4 5 4 5 5 5 5 5 6 6 5 5 5 3 4 4 3 3 3 3 4 4 4 4 4 3 5 5 6 8 11 13 15 16 17 17 18 18 18 18 17 15 14 12 11 12 11 11 11 11 11 12 13 12 10 11 9 9 8 6 5 5 5 4 4 4 5 6 7 6 5 7 8
8 7 7 7 7 8 8 6 8 7 6 7 6 6 6 6 6 6 5 5 5 5 5 5 5 6 5 5 5 5 5 4 4 4 4 4 5 4 4 6 7 8 10 13 15 15 16 18 19 19 19 19 18 18 18 17 15 14 13 12 12 12 12 11 12 14 15 13 12 11 10 8 7 7 7 6 5 4 4 6 6 7 8 7 6
8 8 8 8 7 8 7 8 7 7 7 7 7 6 6 5 6 5 5 5 5 5 4 5 5 5 5 5 6 6 6 5 4 4 3 4 5 5 6 8 11 10 10 13 14 14 16 18 19 19 18 18 19 18 18 18 18 17 16 16 14 13 13 13 13 13 14 16 17 13 10 10 8 8 9 9 8 6 6 6 6 7 9 10 10
8 9 9 8 7 8 8 8 8 7 6 8 9 8 7 6 7 6 7 6 8 8 6 6 6 6 5 5 5 6 6 5 6 3 4 5 7 7 7 7 6 10 12 13 14 16 17 18 19 19 20 20 19 19 18 18 18 18 18 18 17 16 16 16 14 15 13 14 17 14 8 8 8 8 9 10 10 9 8 7 7 8 9 9 10
9 9 8 8 8 9 8 8 7 7 7 8 9 8 7 8 7 8 8 8 8 7 7 7 6 5 6 5 5 5 5 6 6 5 6 7 7 7 7 7 7 7 7 10 12 13 17 18 19 21 21 21 20 19 19 19 19 19 18 18 18 18 18 17 17 16 16 14 13 12 11 11 12 12 11 11 10 9 9 8 9 9 8 9 10
9 8 9 8 9 9 9 8 7 7 7 7 6 7 9 10 8 8 7 8 7 6 6 6 6 7 6 6 5 5 5 5 6 6 6 6 7 7 7 7 7 6 6 7 9 13 16 18 21 21 22 21 20 20 20 19 19 19 19 18 18 18 18 17 17 17 16 17 15 13 12 12 13 13 14 12 12 10 10 10 10 10 9 8 9
10 9 10 9 9 9 8 8 8 7 7 8 8 8 7 9 9 7 8 8 7 8 6 6 6 6 5 6 6 5 6 5 6 6 6 7 7 7 7 7 8 7 7 7 8 10 17 17 20 21 21 21 21 20 20 20 20 20 19 18 19 20 19 19 18 17 17 16 16 16 15 15 15 16 13 13 12 13 12 11 11 11 11 10 10
10 10 10 9 9 9 7 8 7 7 8 8 8 7 6 7 8 8 7 7 8 8 7 7 6 5 5 6 4 6 7 6 6 5 5 7 7 8 8 8 8 10 8 8 8 8 13 17 18 18 18 21 21 21 20 20 20 20 19 20 20 19 19 19 19 19 19 18 17 17 17 16 16 16 16 15 15 14 14 14 13 12 11 11 10
10 9 10 9 9 9 8 8 7 8 8 9 8 7 7 6 8 8 9 8 9 8 8 7 5 5 5 6 7 8 8 8 8 8 7 8 8 8 8 7 8 7 8 8 7 8 9 12 15 15 15 20 21 21 21 20 20 19 19 19 19 20 20 20 19 19 19 19 19 19 18 17 16 16 17 16 16 16 17 16 16 16 16 15 14
10 9 10 9 9 9 9 8 8 8 9 9 9 9 8 8 8 8 7 8 7 6 5 6 5 5 6 7 8 9 8 9 9 8 8 7 8 7 8 8 8 8 8 8 7 8 9 9 9 9 10 16 20 21 21 21 20 19 19 18 18 18 19 20 21 20 19 19 19 19 19 19 18 18 17 17 18 17 16 18 20 20 18 16 16
9 9 10 9 9 9 9 9 9 9 11 11 9 9 9 8 8 7 8 9 11 10 9 8 4 8 8 7 7 8 10 9 10 9 8 9 7 8 8 8 8 8 8 7 7 7 8 8 9 9 8 11 17 18 18 18 17 19 19 19 18 18 19 18 20 20 20 21 21 21 21 21 20 20 19 18 18 18 19 19 16 19 20 21 21
9 9 9 9 9 8 9 9 8 10 10 9 8 9 8 7 5 6 9 11 12 12 12 5 7 6 5 4 4 5 7 10 10 9 8 7 7 8 7 9 8 8 6 7 7 7 7 8 8 9 9 8 9 13 16 17 15 17 19 18 18 19 19 19 19 19 19 20 21 22 22 22 22 21 21 21 20 20 19 19 21 21 19 18 21
8 8 9 9 9 9 10 9 9 8 8 8 10 10 10 10 6 7 7 9 8 9 11 7 7 3 3 4 7 4 5 8 12 8 8 7 6 7 8 9 9 8 7 7 8 7 7 7 7 9 9 8 8 8 9 9 10 15 16 16 18 19 20 19 19 20 20 20 20 21 21 21 21 22 21 21 22 22 22 22 21 21 21 22 19
8 9 9 9 10 10 9 8 9 7 9 10 9 10 8 9 8 6 6 5 6 7 10 9 4 3 0 2 3 5 6 6 5 7 9 6 6 8 8 8 10 8 7 8 8 9 7 7 8 9 10 9 8 8 8 9 11 14 13 12 14 18 19 19 19 21 21 21 21 21 21 21 21 21 21 22 21 21 22 23 23 23 23 22 22
9 9 9 10 10 10 8 9 9 7 8 9 9 9 9 9 9 9 5 8 6 8 8 9 8 5 4 2 1 2 4 5 9 5 4 4 9 8 7 9 11 11 8 8 8 9 8 7 9 10 9 9 8 8 8 8 12 12 11 12 11 16 18 19 19 21 22 22 22 23 23 23 22 22 21 22 22 22 22 22 23 24 24 24 22
9 10 10 10 9 8 9 8 8 7 7 8 8 8 7 7 8 8 8 5 7 4 7 7 9 7 3 3 4 5 0 5 5 6 6 6 7 8 6 9 8 9 7 7 9 9 8 10 10 9 9 9 8 8 7 9 8 7 8 11 16 17 17 18 19 21 23 23 23 24 25 25 24 23 22 22 22 22 22 22 22 22 23 24 24
9 9 9 8 9 8 7 8 7 7 7 7 7 8 9 9 7 7 8 6 6 8 7 7 5 8 7 5 3 2 2 4 5 5 5 1 3 6 5 7 7 8 6 7 9 8 8 8 9 10 9 9 8 8 7 8 8 7 7 10 21 22 21 21 21 22 23 23 24 25 26 27 26 24 24 23 22 22 22 22 23 23 22 22 23
8 8 8 7 8 7 8 8 7 7 6 7 8 8 7 6 6 8 7 6 6 8 7 5 5 7 7 5 5 3 0 3 3 3 6 5 3 6 4 9 8 8 7 9 9 9 9 8 8 8 9 9 9 8 7 7 9 9 12 18 22 22 22 22 21 22 23 24 25 25 26 28 28 26 25 25 24 23 23 22 22 22 23 23 23
8 8 8 8 8 8 7 7 8 6 7 7 7 6 6 6 6 6 7 7 6 7 6 6 6 4 5 8 7 5 4 5 4 2 2 7 8 2 1 7 7 6 5 8 8 9 10 9 9 9 8 9 9 8 8 7 7 7 7 18 23 23 23 22 22 22 23 24 25 26 27 29 28 27 27 26 25 25 24 23 23 22 22 23 23
8 8 8 8 8 7 7 7 7 6 6 6 6 7 8 8 8 8 7 7 6 5 6 6 6 5 5 6 5 6 4 4 4 5 2 3 6 5 10 4 3 4 8 5 6 9 9 8 8 8 7 8 8 8 8 9 9 9 9 23 25 25 24 24 23 23 23 24 25 26 27 28 27 27 27 27 27 25 25 25 24 24 23 22 23
7 7 8 7 7 7 7 7 6 6 6 6 6 7 7 6 6 6 6 7 5 6 6 5 5 4 5 3 5 5 5 4 3 4 2 0 3 9 6 10 12 7 6 7 8 8 7 6 8 8 8 8 8 8 8 9 8 8 13 25 25 26 25 24 24 24 24 24 25 26 26 27 27 27 27 27 27 26 25 25 25 25 24 23 22
6 7 7 6 7 6 6 6 5 5 6 7 6 6 6 6 5 6 7 7 6 6 6 5 5 5 5 6 5 5 3 3 3 4 3 2 5 6 7 6 7 10 2 6 9 9 6 6 6 6 6 7 7 8 8 8 10 13 20 20 22 24 25 25 25 25 25 25 25 26 26 26 26 26 26 26 27 27 26 26 26 26 26 25 24
6 6 6 5 5 6 5 6 6 6 6 5 6 5 5 6 6 6 6 5 5 6 5 6 5 5 4 4 4 3 4 4 2 2 4 3 2 5 7 7 5 3 7 6 5 5 9 9 5 5 6 7 6 7 7 9 11 20 18 20 23 24 24 26 27 26 26 26 26 26 26 26 26 26 26 27 27 27 27 26 26 26 26 26 26
5 6 4 4 4 6 6 6 6 6 5 6 5 6 5 6 6 6 6 5 4 4 5 4 5 5 4 3 4 5 4 3 3 3 3 2 3 5 4 3 5 9 4 4 3 5 8 4 6 6 7 6 7 8 9 9 8 13 18 12 22 22 24 24 24 26 26 26 25 26 26 26 26 27 27 28 28 28 27 27 26 26 26 26 26
7 6 5 5 5 5 6 6 5 5 5 5 5 5 5 5 5 5 5 4 5 4 4 4 4 4 3 5 4 5 4 4 3 5 4 5 5 4 6 5 4 7 5 2 3 5 4 3 6 5 6 6 7 8 8 10 10 13 20 13 13 19 21 23 23 24 25 26 27 27 27 27 28 27 27 28 28 27 27 27 27 27 27 26 26
6 5 4 5 5 6 5 6 5 5 5 5 5 5 4 4 4 4 4 4 4 5 4 4 5 4 4 3 4 5 4 4 3 4 3 3 2 3 4 9 7 3 5 5 5 3 7 4 2 6 3 7 9 9 8 8 10 19 19 11 9 16 20 23 25 26 26 26 26 28 27 27 26 27 27 27 27 28 28 27 28 27 27 28 27
5 5 4 5 5 5 5 5 5 5 5 4 4 4 4 4 4 4 4 3 4 5 3 4 4 4 4 3 4 3 3 3 3 3 4 3 3 3 3 3 5 8 8 7 5 6 4 2 3 2 7 7 6 7 9 11 9 17 13 11 11 12 19 23 25 25 25 25 25 25 26 26 26 26 27 27 27 27 27 28 27 27 27 26 26
6 4 5 4 5 5 5 5 5 5 5 4 4 4 4 4 5 4 5 4 4 4 3 4 3 3 3 3 3 3 3 3 3 4 4 4 4 3 2 2 2 3 5 6 11 5 6 3 2 3 7 8 6 5 9 9 11 15 10 10 11 11 18 25 26 25 24 25 25 25 25 26 27 27 26 27 27 27 27 27 27 27 27 27 27
6 5 5 5 5 5 5 5 5 4 4 4 4 4 4 5 4 4 3 4 3 3 3 2 3 2 2 4 3 3 3 3 3 3 3 3 4 4 3 3 2 2 3 6 10 6 8 4 1 4 6 6 8 7 6 8 13 15 11 11 10 11 22 24 24 24 24 25 25 25 25 24 25 25 26 26 26 26 26 26 26 27 27 27 27
7 6 5 5 5 4 5 4 4 4 4 4 4 4 4 4 3 4 3 3 3 3 2 2 2 3 3 3 3 3 3 3 3 4 4 3 5 3 4 2 3 2 3 3 7 5 1 7 2 3 8 6 8 9 6 7 11 14 11 11 10 17 22 17 23 24 25 25 25 24 24 25 25 26 26 27 27 27 27 27 27 27 27 27 27
6 6 5 5 5 5 4 5 4 4 4 4 4 4 4 3 3 3 2 3 3 3 2 3 2 3 3 3 3 3 3 3 3 4 3 3 3 4 3 3 3 3 2 3 7 14 13 7 8 3 5 9 8 9 10 7 9 15 10 10 12 17 10 9 16 23 24 25 24 24 26 26 26 26 26 26 27 28 28 28 28 28 27 27 27
6 6 6 5 4 4 4 4 4 4 4 4 3 3 3 3 2 3 3 3 3 2 2 3 3 3 3 3 3 3 1 3 3 4 3 3 3 3 3 4 4 3 3 4 7 12 15 6 4 5 6 8 8 6 11 10 9 9 10 9 10 10 10 9 10 16 22 23 25 25 25 24 24 25 26 26 26 26 27 27 27 27 27 27 27
6 7 6 4 4 4 4 4 4 4 3 3 3 3 3 2 2 2 2 3 2 2 2 2 3 2 2 2 3 3 2 3 3 3 3 3 3 3 3 4 4 4 3 4 6 8 14 15 8 5 6 8 11 6 8 12 12 10 11 9 9 9 10 10 9 9 19 23 24 24 24 25 25 25 25 24 24 24 25 25 26 26 26 26 26
5 6 6 5 5 4 4 4 4 3 3 3 3 3 2 2 2 2 2 2 1 1 2 1 1 1 2 1 2 1 2 3 2 3 3 3 2 3 3 3 3 3 3 3 5 9 11 14 10 9 8 9 9 11 9 8 10 10 11 10 10 10 8 10 10 8 16 22 23 23 24 25 25 25 25 25 24 24 25 25 26 27 27 27 27
7 5 5 6 5 5 4 4 3 3 3 3 2 2 2 2 2 1 1 1 1 1 1 1 1 1 0 1 2 1 2 2 3 2 2 1 2 2 3 3 2 3 3 3 4 6 9 12 13 8 9 10 11 8 8 9 9 10 9 11 9 9 10 9 9 9 13 22 22 23 24 24 24 24 24 25 25 25 25 26 27 27 28 28 27
6 6 5 4 4 4 5 4 3 3 3 3 2 1 2 3 2 1 1 1 1 1 1 0 1 1 1 1 2 2 1 2 3 2 1 1 1 2 3 2 2 4 4 4 5 5 8 10 12 8 7 9 9 10 7 9 10 9 9 9 10 9 10 9 8 9 15 20 20 22 21 22 23 23 24 25 25 26 27 28 28 28 27 27 26
6 5 6 5 5 4 4 4 3 3 3 3 3 2 2 2 3 2 2 2 1 1 0 0 0 1 1 2 2 2 2 2 3 2 1 2 2 2 2 3 3 3 4 4 5 7 8 10 11 14 10 9 12 9 7 8 11 13 12 10 8 8 8 10 9 8 7 8 8 9 12 15 16 23 24 24 26 28 30 29 27 26 26 26 26
8 7 5 5 4 4 4 4 3 3 3 3 2 3 3 3 3 2 2 1 1 0 0 1 1 1 2 2 2 2 2 3 3 3 3 3 3 3 3 3 3 3 5 6 6 8 9 11 12 12 13 11 11 14 10 9 11 11 13 13 12 8 8 9 11 8 8 10 12 17 16 16 19 18 21 25 27 28 28 27 26 25 25 26 25
7 7 7 6 4 4 4 4 3 3 3 3 3 3 3 3 2 2 1 0 0 1 1 1 1 1 2 2 3 3 3 3 3 3 3 3 3 3 3 2 3 6 6 7 8 9 10 11 11 13 11 12 12 10 14 12 14 11 8 11 15 14 12 10 9 11 10 10 10 8 9 11 12 15 20 20 22 25 25 24 24 24 25 24 24
6 6 5 5 5 4 4 4 3 3 4 4 3 4 4 3 3 2 1 1 1 1 2 2 2 3 3 3 3 3 3 5 7 7 7 7 4 3 3 2 5 5 5 5 5 6 7 7 11 11 13 12 11 14 12 14 10 16 13 12 14 13 13 12 11 8 10 12 10 9 8 8 10 9 9 9 10 16 16 21 19 22 23 23 25
6 6 5 4 5 5 4 4 4 4 4 3 5 9 7 5 3 3 2 2 2 2 2 3 3 3 3 3 3 6 7 7 7 8 9 9 9 6 4 4 3 4 4 5 6 6 7 9 8 9 9 10 9 11 15 14 14 11 13 12 15 17 13 12 11 8 8 10 11 11 9 7 8 9 8 10 9 10 9 10 10 17 22 25 24
7 6 6 6 5 4 5 4 5 5 4 3 10 10 10 10 6 4 3 3 3 4 3 3 4 3 3 3 2 3 4 5 4 8 8 9 9 10 10 10 8 6 5 7 7 7 8 9 9 8 8 11 15 12 12 13 11 16 12 15 15 14 16 13 12 8 4 8 10 11 11 8 8 10 9 10 10 9 10 10 21 25 25 25 24
6 5 6 6 5 4 4 4 5 5 4 8 12 11 10 9 8 5 4 4 4 4 4 4 3 3 3 3 2 2 2 3 3 3 5 10 10 10 11 10 11 12 12 10 9 8 8 9 10 10 11 14 15 14 12 14 14 16 16 14 13 16 14 13 12 12 7 9 10 11 14 8 7 9 11 10 9 8 10 18 25 25 25 24 24
6 7 7 7 6 5 5 6 5 5 4 10 12 12 11 10 10 8 4 5 4 5 5 5 4 3 3 2 3 3 3 7 5 4 5 5 9 13 13 13 14 15 15 17 17 12 10 11 12 15 12 13 15 12 12 14 17 17 16 13 12 13 11 14 10 12 10 8 11 13 14 9 8 9 9 10 8 9 10 15 22 24 24 25 25
7 6 5 7 6 6 6 6 5 4 5 9 12 11 11 11 10 8 5 5 5 5 6 6 5 4 3 3 3 4 3 4 4 6 6 6 7 8 8 8 8 11 15 16 16 18 17 13 14 14 14 13 15 16 17 17 17 14 12 11 12 13 14 14 17 15 12 7 11 13 13 7 6 8 10 9 8 10 9 13 23 24 25 26 25
10 10 10 8 7 6 5 5 5 6 6 11 12 12 12 12 11 9 5 5 5 6 6 6 5 3 3 4 4 5 5 5 6 7 7 7 7 8 8 8 7 5 4 6 7 7 7 7 8 10 12 12 13 16 15 14 15 15 14 16 16 15 15 13 11 9 9 7 11 10 13 8 7 8 9 9 8 9 8 12 22 24 24 24 24
4 4 4 4 7 7 6 5 5 7 6 12 13 13 13 12 12 5 5 6 6 6 6 6 4 4 4 5 5 5 5 5 10 14 10 8 7 9 7 5 5 7 8 8 14 16 15 13 12 13 13 15 20 19 19 17 15 14 15 13 12 10 10 9 8 6 7 6 9 10 10 9 8 11 10 7 9 12 10 8 17 22 22 23 24
8 8 9 8 7 7 7 6 7 7 5 10 13 13 13 13 9 4 5 4 4 4 5 5 5 5 4 4 5 5 6 6 12 14 12 12 8 5 6 9 9 7 6 7 14 18 19 19 19 20 23 25 24 24 24 25 18 16 12 12 10 10 11 11 8 7 9 8 8 8 9 9 5 8 9 8 9 12 11 8 8 15 20 23 26
10 10 8 7 6 7 8 8 8 7 7 9 13 13 13 13 10 6 5 4 5 6 5 6 4 4 5 10 9 7 7 8 12 13 14 10 4 6 8 9 8 8 8 7 7 9 13 14 16 19 20 20 20 21 20 21 21 16 10 11 11 10 11 10 12 11 11 10 11 7 7 7 8 8 9 7 8 7 7 8 11 11 19 20 23
8 7 7 7 6 5 6 7 8 8 7 8 11 13 14 13 10 5 6 5 6 6 5 5 5 5 5 8 12 11 9 10 14 13 12 8 5 6 7 6 7 7 7 9 9 7 6 9 9 9 10 12 11 11 12 20 19 16 11 10 9 9 10 10 11 12 12 8 8 9 10 8 10 9 9 9 8 7 6 7 10 9 8 8 11
Wind_Direction
59 54 59 59 55 46 47 34 40 44 55 52 67 74 62 63 57 36 56 63 52 37 32 36 20 13 56 35 32 23 8 18 15 21 27 47 18 348 357 4 8 6 6 3 2 1 358 358 356 356 352 350 347 339 333 336 340 350 354 356 346 323 330 318 232 237 234 237 242 247 241 251 264 272 294 295 305 311 319 328 335 316 315 319 314
60 52 56 53 48 46 46 40 39 27 46 51 36 59 55 46 47 43 44 33 28 8 12 25 25 21 32 55 26 37 31 25 23 11 14 42 40 15 352 4 2 4 6 5 9 8 7 7 4 0 358 356 353 349 345 339 335 340 344 344 344 345 347 345 336 329 296 237 239 239 245 244 248 240 258 269 279 295 303 310 306 309 297 307 309
61 59 61 60 53 51 50 46 46 37 40 52 44 49 49 50 43 41 35 36 26 14 27 33 31 26 14 22 359 8 9 12 27 17 23 15 26 32 14 15 7 9 8 6 8 11 14 13 7 3 359 356 355 353 352 349 348 343 337 333 331 333 338 341 343 335 341 336 244 231 230 239 241 239 241 248 255 273 289 292 292 297 294 279 295
67 66 62 56 53 56 48 46 45 45 46 49 50 52 46 43 48 47 43 42 25 21 17 44 35 28 18 19 7 17 5 350 9 20 33 35 33 34 41 41 34 33 20 13 17 20 19 14 10 8 7 3 359 355 353 353 352 350 346 342 336 331 331 335 337 336 336 338 337 244 229 230 234 241 245 246 247 255 268 272 283 288 295 294 286
59 60 59 55 54 55 50 45 39 34 40 51 49 43 43 35 37 35 35 32 33 17 13 28 25 8 16 21 16 8 354 356 355 14 31 37 33 36 41 40 35 32 28 25 29 28 22 19 18 18 15 11 7 3 358 355 354 351 349 348 346 344 342 342 339 338 329 334 349 345 276 257 248 250 251 251 252 252 255 262 275 286 292 294 293
59 61 60 60 58 56 53 47 38 39 41 42 50 43 45 44 37 43 34 35 29 18 16 12 4 358 9 -0 10 3 1 1 351 7 44 49 50 46 40 38 32 30 26 25 28 25 23 23 24 22 16 11 9 6 4 3 1 357 352 348 347 347 346 345 346 342 340 337 337 342 339 329 308 275 260 261 262 262 255 259 266 275 283 287 291
54 60 60 59 57 54 46 39 34 34 41 36 51 48 49 47 33 39 33 28 22 20 15 8 358 357 346 349 354 1 11 6 23 46 50 53 51 49 46 41 33 30 28 26 22 17 17 20 23 20 16 12 8 7 5 3 2 359 357 355 355 352 349 347 345 345 342 343 341 338 331 323 323 305 269 263 264 263 258 258 262 267 271 274 279
54 54 61 54 56 53 44 38 35 40 40 38 41 43 51 54 43 40 38 26 18 14 10 6 359 350 343 352 356 5 16 23 39 46 49 56 53 53 47 39 31 23 25 27 24 18 18 18 19 18 15 11 8 6 3 1 1 357 356 358 359 358 356 354 351 348 345 343 341 338 332 328 326 326 298 262 262 264 260 256 260 266 273 277 274
57 58 64 59 58 56 45 43 41 47 46 42 45 40 46 59 50 42 45 35 24 11 6 5 353 348 348 1 355 12 31 29 33 36 46 55 52 52 46 39 34 33 32 29 28 25 22 18 14 12 8 6 7 5 4 4 1 358 356 355 355 353 355 356 356 355 354 350 345 339 335 333 330 325 324 300 269 267 271 263 258 262 270 274 274
60 63 69 66 64 62 53 43 45 49 50 46 44 39 45 49 54 40 36 35 26 16 358 350 346 348 5 16 27 46 37 33 29 33 43 50 52 51 47 40 38 32 31 30 30 29 25 15 10 7 3 2 4 5 4 4 1 358 356 356 357 357 357 355 354 355 354 352 350 347 341 334 329 327 323 320 309 295 290 276 268 265 269 278 269
64 64 70 67 64 59 57 47 49 52 54 50 41 35 38 38 48 39 35 42 34 22 3 338 350 4 37 53 63 53 50 45 44 41 36 40 46 44 43 32 31 28 28 28 29 29 23 20 13 5 357 354 358 359 1 5 1 358 358 359 358 357 357 356 353 350 348 347 348 347 345 343 338 331 324 318 314 307 294 289 285 280 278 275 271
64 66 69 67 67 60 60 50 49 53 54 50 40 37 34 33 34 36 32 30 29 14 12 6 1 47 65 66 56 61 55 53 47 39 35 33 38 42 37 29 31 23 26 26 27 24 21 17 12 4 358 351 352 352 352 355 355 358 359 358 358 360 359 356 356 356 354 352 351 349 349 346 342 336 332 326 318 312 308 301 287 281 285 290 289
60 64 66 69 67 63 61 52 51 55 57 56 51 47 41 41 35 42 41 40 25 10 7 12 32 28 16 35 40 50 64 57 49 38 30 31 34 42 32 33 24 21 12 24 23 18 18 14 9 1 358 352 347 346 347 347 346 354 358 2 359 359 358 358 1 360 357 355 353 352 350 347 344 342 338 333 327 322 316 310 306 301 292 281 285
61 65 67 66 67 62 57 53 50 55 63 58 52 47 42 38 28 45 37 54 47 17 7 13 30 35 353 333 350 353 65 63 45 23 26 32 36 39 33 30 19 11 5 22 16 8 11 6 5 1 352 350 346 345 345 342 340 343 357 4 359 357 357 358 1 1 359 357 354 352 350 347 344 341 338 335 332 329 323 318 314 309 305 302 295
63 64 67 62 64 64 58 57 53 52 58 51 48 47 42 43 41 54 39 38 61 30 26 38 34 328 281 69 3 5 327 10 31 26 14 18 34 37 26 26 12 9 10 18 8 3 359 358 2 357 348 344 343 342 339 340 339 341 346 -0 359 354 353 353 356 358 358 357 356 352 348 346 343 339 336 334 332 329 326 323 320 317 313 308 305
61 63 66 63 61 65 64 58 54 49 59 61 50 48 39 39 41 42 51 56 31 28 31 29 38 20 24 60 304 79 350 344 341 323 3 16 30 26 26 18 10 4 10 9 1 -0 353 352 356 347 342 338 337 340 337 337 341 344 338 345 341 352 349 345 347 349 349 349 350 350 346 343 341 338 335 332 329 329 327 325 321 319 318 316 312
63 63 67 67 64 65 68 65 64 54 59 64 59 53 50 48 44 51 45 73 48 31 19 30 40 34 99 46 7 29 113 272 323 291 353 7 11 20 19 25 14 356 -0 358 2 354 352 348 342 339 336 334 333 334 335 334 343 341 339 340 340 345 344 342 343 345 345 344 344 345 345 341 336 334 333 333 330 326 324 323 322 320 317 315 314
64 67 68 71 71 69 71 72 67 60 59 67 65 56 46 47 38 53 52 39 92 52 28 6 39 48 49 70 118 140 298 291 55 316 340 288 36 10 6 24 7 353 356 359 355 346 346 340 335 333 332 330 327 328 333 332 336 341 337 347 352 346 340 339 342 342 342 341 341 340 340 338 333 329 329 328 328 327 325 321 317 317 316 315 313
68 68 70 72 75 69 69 69 67 66 60 64 60 58 56 53 44 52 51 51 51 67 47 353 357 27 27 47 61 73 120 48 7 308 337 322 12 2 357 10 1 350 355 353 347 347 338 333 328 328 328 327 325 323 328 329 332 336 338 350 345 342 337 336 341 342 339 337 336 336 335 334 331 327 325 325 323 323 323 322 319 315 313 312 312
74 67 66 66 68 65 65 65 67 59 62 64 69 66 65 55 59 64 62 54 60 76 69 31 66 351 8 24 16 18 41 75 71 80 271 308 320 334 80 8 354 335 355 345 343 339 331 328 331 331 331 327 325 325 328 330 328 332 329 345 341 336 335 333 335 335 334 333 332 332 331 330 328 326 324 322 321 320 319 319 318 317 315 311 308
61 67 62 64 64 68 64 65 64 60 62 64 61 60 61 58 48 47 52 52 56 68 71 50 51 38 18 7 16 14 360 41 49 28 34 298 283 340 322 339 347 311 339 336 337 329 321 322 322 326 331 331 335 332 333 335 337 338 341 349 351 345 339 335 333 332 331 330 330 330 329 327 326 325 325 323 321 318 317 317 316 315 315 314 311
62 62 66 60 66 65 67 67 68 66 64 66 65 61 58 64 64 66 59 60 43 58 73 65 67 58 68 55 45 2 16 3 19 4 332 16 336 316 328 333 339 330 322 339 336 317 315 322 326 329 336 337 343 346 343 349 348 351 348 351 347 343 339 337 335 331 329 329 328 328 326 325 324 324 324 323 321 319 317 316 315 314 312 312 313
76 65 66 68 70 68 73 72 69 66 63 59 58 65 64 68 64 60 57 59 50 55 56 54 58 50 45 58 65 78 72 46 336 356 50 343 338 313 326 329 316 317 320 348 322 313 314 316 321 327 335 337 346 351 355 352 353 348 348 347 345 341 338 335 332 330 328 326 325 324 323 322 322 322 322 321 320 318 316 315 314 313 312 311 309
80 80 69 73 81 78 77 74 66 62 61 66 60 61 62 65 58 58 53 52 48 50 54 54 45 46 38 42 47 63 51 49 326 59 48 348 356 304 318 321 306 252 306 316 283 297 322 315 320 337 334 342 351 355 353 353 347 347 347 346 344 341 337 333 330 328 325 323 322 321 320 321 321 321 320 320 319 317 315 315 314 313 311 310 309
94 95 92 92 95 84 76 74 70 64 65 61 57 54 59 64 65 60 56 52 52 57 60 64 65 53 36 24 46 38 35 359 34 43 25 52 27 341 301 320 297 309 304 317 312 315 284 285 333 338 336 1 348 355 355 351 345 341 344 338 337 335 334 332 330 327 324 323 322 321 322 321 320 319 319 318 317 316 316 315 314 313 312 311 310
123 115 126 108 90 93 87 81 78 72 67 65 61 57 59 71 70 71 62 50 49 51 65 64 56 54 61 40 27 32 12 19 21 38 31 28 5 354 324 316 292 290 305 305 309 344 313 -0 329 329 345 349 357 0 351 340 338 339 341 338 334 339 337 334 330 326 323 322 321 320 318 317 315 315 315 314 315 315 314 314 313 312 312 312 311
124 128 111 102 95 86 83 82 77 73 65 61 56 56 56 68 69 79 66 55 50 51 40 67 53 46 37 46 27 18 9 7 30 23 43 28 26 329 7 338 326 293 309 305 298 247 267 296 331 322 354 16 358 346 345 345 339 337 343 346 339 336 334 329 325 322 320 318 317 316 315 314 314 314 313 313 313 313 313 313 313 313 312 313 312
114 106 101 104 104 98 92 92 89 83 76 73 66 64 60 69 67 72 58 38 50 42 27 56 52 56 46 28 40 355 1 1 11 26 22 13 9 357 17 15 341 321 324 308 322 301 276 304 305 269 35 12 352 346 341 340 337 340 349 340 333 328 328 325 323 322 321 319 316 315 315 315 314 313 313 312 311 311 311 311 310 310 310 309 309
116 109 107 104 108 107 101 96 89 88 81 75 74 69 69 72 81 74 56 38 50 37 28 48 47 59 41 40 47 6 351 358 15 21 19 17 8 5 14 31 331 317 323 311 309 309 302 27 333 312 54 350 350 2 339 332 335 341 341 335 326 323 323 324 324 323 321 319 318 318 316 313 312 312 311 310 310 309 308 308 309 309 309 308 307
116 116 110 109 104 101 102 97 94 87 89 79 73 65 72 73 87 80 77 61 45 31 29 50 26 54 52 37 31 17 350 18 19 18 20 10 4 355 351 336 353 313 275 303 296 290 283 310 106 325 345 347 338 341 340 325 334 338 330 325 323 319 320 323 322 321 321 321 321 319 316 313 312 311 311 311 311 310 310 310 310 309 308 307 306
119 120 115 112 109 104 105 101 97 95 86 79 72 66 70 71 59 67 50 70 70 38 4 47 17 63 52 35 17 10 7 13 17 15 1 6 352 352 345 17 3 15 301 280 300 271 117 307 329 34 324 336 337 327 336 334 330 332 324 318 318 317 320 319 320 321 322 322 320 319 319 319 318 317 316 315 314 313 313 314 312 311 311 312 311
126 122 119 120 120 116 113 109 103 97 85 72 75 72 73 78 86 71 55 81 59 52 2 30 44 53 51 33 4 8 351 19 15 5 357 342 352 355 4 25 1 339 333 292 268 280 292 295 307 332 330 329 333 331 328 332 323 324 317 315 312 316 317 315 319 321 321 320 321 322 321 318 316 315 314 314 315 315 314 312 311 311 311 311 311
133 125 124 128 124 124 121 111 104 100 90 77 77 87 84 77 65 93 65 70 62 18 44 12 22 50 46 33 354 348 6 29 2 353 349 338 352 4 6 19 1 334 324 291 284 289 293 290 312 327 333 327 322 345 323 322 321 316 315 310 311 316 316 315 313 315 319 320 321 321 320 321 322 322 320 318 315 312 311 311 310 310 310 309 309
134 132 131 132 129 124 117 112 107 107 104 101 94 93 91 81 50 65 71 61 62 29 47 31 5 19 43 42 343 347 346 28 357 349 338 343 358 21 13 11 342 324 301 295 288 285 291 305 317 338 327 328 315 334 325 320 318 314 313 314 312 314 314 310 310 309 317 319 319 319 321 323 324 323 322 321 319 318 318 318 317 314 310 308 308
133 135 139 135 133 123 117 119 114 114 113 104 99 99 100 114 96 54 71 83 76 49 35 5 352 357 24 17 325 338 342 6 344 335 334 342 16 34 1 344 325 305 308 302 301 296 297 295 312 325 330 322 316 320 320 307 303 306 310 312 313 310 304 305 306 304 313 315 317 320 321 321 321 321 322 322 321 321 320 319 318 317 315 313 311
137 138 135 139 131 133 131 125 128 123 111 113 89 107 131 120 113 92 46 57 79 80 92 12 353 14 337 352 316 335 334 358 325 330 327 14 41 15 338 322 316 302 304 296 283 288 296 298 308 328 320 319 312 312 309 303 302 305 302 302 300 298 300 299 299 304 305 311 315 317 318 318 318 318 318 319 319 319 318 318 316 314 314 312 310
143 136 134 132 138 141 141 139 134 134 138 128 118 97 102 131 132 110 65 77 73 75 74 76 358 63 338 322 289 305 326 329 311 322 321 37 321 335 320 298 288 288 289 283 278 272 286 291 300 308 314 304 301 305 312 312 308 298 295 296 299 299 296 293 294 293 297 303 305 306 307 311 314 314 314 316 315 315 316 315 314 313 312 312 312
142 144 146 150 156 154 137 138 140 145 141 136 144 161 146 102 84 86 93 87 75 72 21 0 30 335 320 293 279 276 302 299 293 297 268 291 294 296 290 279 269 280 279 282 294 302 298 297 304 311 316 319 316 311 316 311 310 310 307 298 292 293 296 299 292 293 291 289 296 291 292 295 296 309 312 313 312 313 315 315 314 314 314 313 312
150 153 153 149 157 139 135 135 148 150 148 145 149 145 122 99 98 89 64 64 39 328 326 308 319 299 291 277 282 282 278 276 277 272 268 279 280 274 263 264 272 278 306 311 310 307 304 304 304 305 308 311 314 313 316 309 297 299 304 310 303 297 292 294 300 293 290 287 281 286 288 292 301 307 309 310 312 313 313 313 315 315 314 312 311
157 156 158 156 153 143 138 150 157 149 153 158 149 133 118 119 115 106 125 166 231 317 293 301 283 275 279 285 277 275 264 262 247 254 265 281 267 264 263 261 262 303 303 298 295 294 297 298 300 308 307 308 308 302 306 309 311 298 297 305 305 308 305 297 289 300 298 287 292 290 285 288 287 296 303 305 306 307 310 312 312 313 312 310 310
151 148 145 150 145 143 149 154 169 171 174 188 162 151 135 133 141 151 184 202 223 253 273 271 277 272 277 278 274 267 267 279 302 311 306 303 298 290 275 255 292 289 285 290 292 297 291 286 298 300 298 295 300 306 308 308 302 305 302 302 292 291 297 299 292 283 286 291 292 292 294 295 299 297 302 302 299 305 306 308 309 308 307 309 312
145 143 142 150 156 156 163 177 183 192 190 191 180 177 166 155 158 168 190 208 226 231 240 260 262 261 257 255 270 294 302 307 304 305 302 301 302 303 294 294 287 297 294 295 295 289 287 287 282 283 283 281 288 300 295 294 293 292 291 293 297 300 294 289 282 276 282 286 295 297 296 298 297 299 302 301 300 305 301 302 300 305 309 312 312
155 152 151 160 168 169 173 182 192 198 199 195 195 190 185 176 166 183 197 209 228 236 235 239 244 247 255 254 254 283 296 295 292 293 300 302 303 303 302 301 300 297 297 290 281 276 280 282 284 278 277 283 290 288 288 293 296 294 288 295 291 297 299 298 297 296 264 294 299 299 296 301 303 305 306 297 298 296 297 295 305 310 312 312 312
162 151 164 180 172 174 178 188 199 204 204 206 204 199 194 194 186 183 200 214 221 236 239 235 241 235 239 245 256 252 253 261 266 274 291 294 296 297 297 293 290 287 286 283 288 291 289 291 298 295 292 291 291 295 295 299 300 298 293 289 288 287 290 285 292 295 317 315 306 301 295 304 306 301 296 291 291 291 292 304 310 311 310 312 314
152 167 182 174 184 181 183 194 205 209 211 217 210 202 201 198 203 200 203 213 223 230 236 242 240 241 231 239 255 250 252 281 288 278 262 262 277 281 281 279 277 276 285 292 293 294 302 299 292 288 285 291 294 295 299 302 301 293 292 291 288 287 287 291 290 303 318 326 305 295 295 311 311 297 287 291 294 294 296 302 307 311 313 314 315
172 175 179 187 182 188 192 194 203 212 214 225 214 209 204 204 205 208 206 213 224 230 235 237 238 230 234 239 248 260 253 261 265 265 265 262 259 256 256 255 251 261 272 282 291 292 289 283 281 284 292 297 297 298 301 299 298 295 296 290 309 311 311 309 312 310 308 312 296 297 292 306 301 298 295 295 298 295 294 301 312 314 313 313 314
177 184 186 187 193 187 191 189 197 217 224 224 220 213 208 205 209 208 209 217 222 233 234 235 236 232 235 238 239 247 251 252 254 256 251 250 255 258 261 266 263 257 267 278 277 264 275 287 281 284 295 300 298 300 303 310 312 314 318 315 314 309 299 296 293 291 292 281 281 286 289 312 308 296 295 299 308 302 303 311 313 311 312 313 314
177 159 186 182 185 189 188 184 196 224 234 229 225 220 213 208 208 201 207 219 225 229 234 231 235 236 234 235 240 246 248 250 258 271 281 278 268 270 277 282 301 301 287 292 309 312 310 306 302 299 300 303 310 313 314 315 317 318 312 307 302 298 305 302 293 294 282 280 283 288 292 300 310 303 304 314 314 303 306 302 309 312 313 315 318
180 188 191 191 186 179 181 186 199 228 233 237 233 227 219 209 205 177 199 210 225 227 236 231 231 233 228 233 236 239 246 246 257 270 279 285 278 286 308 310 296 289 302 318 310 307 307 305 306 312 315 316 316 317 318 319 317 318 320 317 318 326 309 303 298 300 305 311 292 292 293 299 322 314 303 303 305 303 304 303 303 312 316 319 315
190 196 184 180 184 181 182 193 198 214 232 235 236 233 223 215 204 175 194 200 229 233 231 236 228 234 233 246 248 239 240 240 257 272 276 282 305 318 306 291 296 308 308 311 305 293 302 319 325 322 322 321 324 325 323 322 324 329 326 316 314 310 310 311 313 316 313 307 296 316 313 310 317 303 299 299 293 277 288 297 305 309 312 309 308
193 169 172 180 183 190 191 190 199 211 233 236 236 235 230 221 213 173 191 203 223 226 218 229 232 221 232 243 249 250 247 253 264 272 282 296 308 291 286 295 302 308 308 306 301 321 342 331 326 331 324 327 325 323 322 327 330 331 322 312 314 317 316 316 315 315 309 297 302 351 320 315 314 307 315 315 304 294 278 289 302 295 294 297 302